Tracking 19908 objects as of 18-Oct-2019
HD Live streaming from Space Station
objects crossing your sky now

IRIDIUM 33 DEB

Track IRIDIUM 33 DEB now!
10-day predictions


NORAD ID: 35846
Int'l Code: 1997-051SW
Perigee: 769.3 km
Apogee: 795.5 km
Inclination: 86.4 °
Period: 100.4 minutes
Semi major axis: 7153 km
RCS: 0.0007 m2 (small)
Launch date: September 14, 1997
Source: United States (US)
Launch site: TYURATAM MISSILE AND SPACE COMPLEX (TTMTR)

Note: This is SATELLITE DEBRIS
aabbcc
Your satellite tracking list
Your tracking list is empty




NASA's NSSDC Master Catalog

Two Line Element Set (TLE):
1 35846U 97051SW  19291.29424554  .00000268  00000-0  87233-4 0  9998
2 35846  86.3746 287.7524 0018324 348.5414  11.5362 14.34954163534510
Source of the keplerian elements: AFSPC